Theta_e
295 295 295 297 299 299 299 300 300 302 305 306 307 307 308 310 309 309 302 303 303 293 292 295 296 290 289 290 285 284 284 283 283 281 283 278 275 273 272 276 275 275 273 271 272 268 272 285 284 282 286 286 288 288
294 295 294 296 298 299 298 298 299 300 304 306 306 307 308 307 310 309 299 304 302 297 292 295 295 294 296 297 288 287 288 283 284 281 280 279 272 271 273 271 279 274 280 276 278 278 283 288 286 289 289 287 287 288
294 294 294 295 297 297 297 297 297 297 303 304 306 306 307 306 307 308 300 300 297 288 288 291 290 294 296 296 297 287 288 290 287 290 284 281 274 278 270 272 275 277 280 277 277 283 283 283 286 287 289 288 289 290
293 294 294 294 296 297 297 297 294 297 301 300 301 304 306 306 306 305 299 301 299 291 290 287 291 291 293 295 295 295 292 289 288 285 284 281 281 281 278 279 277 279 280 278 277 282 282 284 283 286 286 286 288 289
293 293 294 294 296 296 296 296 296 297 299 299 299 300 304 306 305 303 302 302 302 295 285 286 286 287 291 294 293 292 291 288 286 285 284 282 283 281 280 276 275 279 278 278 280 284 285 286 286 286 285 285 286 285
293 293 294 294 295 296 296 295 295 295 297 297 298 299 301 303 304 298 289 299 302 297 288 285 285 285 288 293 292 290 290 288 287 286 285 286 283 283 279 274 283 282 282 284 286 285 284 284 282 282 285 286 285 284
293 293 293 294 295 295 295 295 295 294 295 296 297 296 298 300 299 292 288 295 303 298 287 280 282 284 288 286 285 285 286 285 286 285 284 285 281 282 282 284 285 283 285 285 284 282 284 282 285 283 283 284 280 278
292 293 293 293 294 294 295 295 295 295 295 295 295 295 295 298 296 290 295 299 300 292 290 282 278 281 285 283 281 285 284 285 284 285 282 282 280 280 277 285 288 287 287 285 285 285 287 282 279 280 279 276 278 281
292 292 293 293 293 293 294 294 295 295 295 294 295 295 293 292 285 287 297 298 295 288 284 279 277 278 284 283 283 283 285 281 284 283 282 283 281 278 283 284 286 288 288 289 285 284 285 281 286 286 279 277 279 283
292 292 292 292 293 293 293 293 294 294 295 295 291 285 283 285 294 296 288 285 285 284 284 282 284 278 284 281 281 281 283 281 277 281 282 280 280 289 285 284 287 289 290 284 283 284 278 281 284 285 282 285 284 283
291 292 292 292 292 293 293 293 293 294 294 288 283 280 286 294 288 285 281 281 283 281 283 284 283 279 284 281 280 283 280 281 277 277 279 278 277 288 290 290 290 289 289 286 289 291 289 289 287 283 281 282 283 283
290 291 291 292 292 292 293 293 293 290 287 287 287 286 285 284 280 277 277 281 281 280 282 280 282 281 281 285 283 281 280 280 277 280 279 275 283 283 287 288 290 289 287 288 289 289 289 285 286 282 283 280 279 281
289 290 291 291 292 292 293 293 293 292 291 287 284 281 280 279 274 271 268 273 277 282 282 282 280 281 281 285 282 280 277 276 280 276 274 277 279 279 287 280 284 288 285 279 275 273 271 270 269 271 275 271 271 272
290 290 290 291 291 292 292 293 293 292 285 279 277 273 274 273 272 272 274 272 277 278 282 285 281 282 283 280 281 277 278 277 274 272 273 278 282 288 281 281 280 281 274 271 270 267 266 265 265 264 264 266 266 268
289 290 291 290 291 292 292 292 293 289 284 278 276 271 273 274 272 271 277 278 279 278 284 284 281 281 281 279 280 274 272 273 274 273 278 282 284 283 282 278 277 269 267 265 265 264 264 263 263 264 264 264 264 265
291 290 288 291 291 292 292 291 288 285 283 279 276 275 275 270 271 270 275 277 282 282 285 285 278 279 278 278 272 272 269 267 273 276 279 275 270 267 268 268 264 264 263 263 263 262 263 262 262 262 263 263 263 264
291 285 291 291 291 292 292 285 284 281 279 276 270 272 273 270 269 270 274 278 282 281 279 283 278 278 276 273 269 271 271 275 274 270 266 262 263 262 263 260 261 260 261 261 261 261 261 261 260 261 264 265 263 264
285 289 292 292 290 288 284 283 279 277 274 274 267 269 270 272 271 271 273 280 279 279 279 278 278 276 276 274 270 271 269 262 263 262 260 259 259 260 259 260 259 259 260 259 259 260 260 262 263 264 262 264 265 266
287 289 291 290 286 282 278 278 278 271 273 272 270 269 269 270 272 272 274 280 279 280 279 279 276 270 263 258 255 259 258 257 258 261 259 257 258 258 261 258 258 259 259 260 260 262 263 262 264 265 265 264 264 264
291 290 288 287 286 278 274 274 275 272 270 270 269 267 270 270 271 267 264 268 270 271 268 264 259 255 255 256 256 255 256 257 257 259 260 261 261 262 261 258 259 258 260 260 260 262 262 263 262 261 261 262 262 262
282 281 285 283 276 274 271 272 271 271 271 269 273 273 271 272 267 265 261 262 260 256 258 256 256 256 258 257 255 256 257 256 256 255 256 258 259 261 258 259 261 261 260 261 261 262 262 260 260 261 262 263 262 262
273 279 271 273 271 269 267 264 264 266 265 265 266 268 265 265 262 259 259 255 252 251 252 253 254 254 256 255 255 255 255 256 257 258 259 259 257 256 256 258 258 260 259 259 258 260 261 261 260 260 261 261 261 261
271 272 266 263 266 264 260 262 262 264 264 261 266 262 261 257 254 256 250 251 251 253 254 254 254 253 254 257 256 254 255 255 255 256 256 258 258 259 257 258 258 257 257 258 260 261 261 263 262 262 261 261 261 261
264 254 254 251 253 252 256 258 260 259 262 263 265 262 259 257 257 254 248 248 250 253 253 253 255 255 257 257 256 255 254 256 258 257 257 257 258 257 258 257 258 257 257 258 259 259 260 260 261 261 261 260 261 260
262 251 253 251 253 253 252 253 254 257 257 257 260 262 257 257 257 251 248 249 251 251 251 252 253 254 253 254 255 256 256 255 255 256 256 257 257 258 257 257 257 257 258 257 256 257 257 259 259 259 260 260 260 260
251 249 250 249 250 251 251 252 251 250 253 254 253 253 255 258 253 246 246 249 249 250 250 251 251 252 253 253 252 253 254 255 255 256 256 257 256 255 255 255 255 256 258 258 257 257 257 258 258 258 258 259 260 260
251 249 251 253 252 252 253 253 253 252 249 248 248 248 253 252 247 246 250 250 249 250 251 252 252 252 252 253 254 254 255 256 255 256 258 258 258 257 256 255 254 256 258 258 258 257 257 258 260 261 261 262 261 262
250 249 250 251 251 251 250 250 248 247 247 248 248 247 248 246 245 248 250 252 250 251 252 253 253 253 253 254 254 253 254 254 256 256 257 258 258 258 257 257 258 261 259 259 259 260 261 261 261 261 260 260 260 261
249 249 250 250 251 249 247 247 248 248 249 248 247 248 248 249 250 249 251 251 252 249 250 251 252 254 254 255 254 253 253 252 254 254 253 253 254 255 256 256 257 257 258 257 260 262 263 264 262 261 260 260 260 260
247 247 250 250 249 248 248 248 248 249 250 250 250 250 251 251 252 252 251 251 250 250 251 252 252 252 251 251 251 252 253 252 252 251 250 251 251 254 254 255 256 257 257 257 257 259 262 261 261 260 259 259 259 258
246 248 252 251 249 249 248 247 248 250 250 251 251 250 249 250 252 253 252 251 252 252 252 251 251 250 250 249 249 249 250 252 252 252 253 253 254 255 256 256 257 257 257 257 257 258 258 258 257 257 256 255 255 256
240 238 242 245 244 242 241 240 240 242 242 244 243 243 245 245 247 249 248 249 250 251 251 250 250 250 249 249 250 250 252 250 251 251 253 254 256 257 256 256 257 256 257 257 257 256 256 255 255 255 254 253 253 253
236 237 237 238 240 240 238 238 239 239 238 238 239 235 236 239 244 245 242 240 243 243 243 243 243 244 243 243 244 244 248 248 249 253 255 257 258 256 251 251 252 252 252 252 254 254 254 254 253 253 253 252 252 252
Wind_Speed
17 12 15 18 21 12 9 9 8 13 16 15 13 11 9 8 30 18 2 5 4 4 4 6 7 8 6 5 8 8 6 1 2 4 4 5 4 7 2 5 8 9 10 6 3 2 11 7 5 8 3 0 2 3
18 16 15 17 19 14 9 11 8 15 18 16 15 13 13 6 22 21 2 5 2 3 2 1 3 3 2 9 11 12 2 7 8 4 3 4 2 2 4 4 3 4 8 8 12 10 1 12 5 7 2 2 3 3
19 17 16 17 20 17 9 8 10 20 12 15 20 20 18 14 7 21 4 4 4 4 2 3 4 2 3 3 6 10 2 7 5 3 4 3 4 5 6 8 4 5 4 3 2 7 14 10 10 9 7 8 6 6
19 19 18 17 20 18 11 7 5 19 7 7 2 5 17 16 14 7 3 3 4 3 2 2 1 4 2 2 3 3 7 7 6 3 3 3 3 4 4 3 4 5 8 6 7 11 8 13 11 12 9 10 9 9
19 19 18 16 18 18 12 8 5 8 4 6 6 6 8 19 18 9 3 4 3 5 4 2 2 1 1 6 8 8 11 8 3 3 3 4 2 2 1 3 5 7 10 8 9 10 6 6 4 5 10 12 14 9
19 18 19 19 21 17 12 9 6 5 4 8 5 7 9 9 18 3 2 2 3 3 6 4 2 2 2 9 10 10 6 3 2 5 4 3 1 4 4 5 7 15 10 10 9 7 8 7 3 3 6 9 11 10
18 16 15 17 18 16 14 12 12 4 5 8 6 4 9 11 5 2 4 1 13 3 4 3 2 1 5 5 3 3 2 2 2 2 4 3 2 4 3 15 8 12 15 14 9 1 11 7 12 8 11 8 2 3
18 15 15 16 15 15 14 14 14 12 6 3 5 5 5 8 7 3 2 4 1 4 3 5 3 4 3 3 4 3 3 1 1 2 1 3 3 1 9 4 11 11 12 8 14 14 18 4 3 5 4 3 5 9
17 17 17 15 14 13 14 15 14 13 13 8 8 8 5 2 2 3 7 8 4 2 4 5 10 8 5 3 4 2 3 3 2 5 4 6 5 12 11 7 9 10 12 15 3 9 16 11 20 15 7 8 10 14
18 18 17 16 15 14 13 12 13 13 11 12 5 3 1 3 6 6 3 2 1 2 2 3 3 6 7 4 3 5 3 4 5 5 5 5 8 26 8 8 8 12 14 7 5 10 2 10 14 15 15 13 12 13
15 17 18 18 16 16 15 14 14 12 8 3 3 2 1 4 2 1 4 4 3 4 4 4 3 9 3 7 5 3 5 5 5 5 8 5 10 27 15 18 15 18 16 11 14 21 12 14 10 9 9 11 10 12
14 15 15 15 16 16 15 16 15 9 2 4 4 3 2 2 2 4 6 5 5 6 4 6 4 2 4 4 4 5 5 5 6 9 5 5 19 5 9 14 21 12 9 19 23 25 15 11 11 8 9 7 8 9
13 15 17 18 18 18 18 18 18 14 11 2 2 3 3 4 7 9 5 3 4 4 6 5 3 4 3 2 4 5 8 6 10 4 7 11 3 3 9 4 6 11 9 3 2 3 3 3 2 3 6 4 5 5
16 19 20 20 21 21 20 20 20 16 3 3 3 7 6 4 4 3 1 2 3 1 7 10 5 3 3 5 4 7 4 5 6 7 10 4 7 9 7 5 5 8 7 6 5 5 5 3 4 3 4 4 4 6
21 20 20 20 22 23 21 20 20 5 3 4 5 5 4 3 2 2 3 1 2 2 4 3 2 2 4 5 5 6 5 7 8 9 5 5 7 7 7 6 6 4 4 4 4 4 3 3 3 4 4 4 4 4
21 23 19 24 24 24 23 19 8 2 4 4 3 3 3 3 2 2 1 2 2 5 3 2 4 6 7 4 5 9 10 8 7 5 4 2 2 2 3 4 3 4 4 2 2 2 3 4 4 3 6 5 4 2
20 9 27 27 25 24 23 4 2 5 6 9 4 2 3 1 3 4 4 3 2 3 4 3 7 7 3 5 5 6 8 6 3 2 3 4 5 4 4 3 4 3 2 1 1 1 1 2 1 3 1 2 2 3
7 20 27 27 16 11 2 3 2 2 1 0 3 5 3 3 2 2 2 2 3 3 3 5 6 7 6 6 4 2 4 2 4 4 3 3 4 4 4 5 4 2 2 1 2 1 1 1 0 2 2 3 4 2
10 18 29 23 9 5 3 2 0 3 1 0 2 2 2 1 1 1 2 2 2 3 2 2 7 4 6 6 5 7 7 6 4 3 2 2 4 4 5 4 1 3 3 2 2 1 1 1 1 2 2 2 2 1
29 24 19 10 7 4 3 2 0 3 2 3 1 1 2 3 2 4 4 5 3 3 3 4 1 1 3 6 5 7 7 6 5 3 1 3 4 5 5 4 2 3 1 1 2 4 3 3 3 2 2 2 2 2
10 9 11 6 4 4 4 2 2 1 1 0 1 1 2 2 2 2 3 3 6 3 2 1 5 3 3 4 0 5 6 5 4 2 2 3 4 3 3 4 5 4 3 3 4 4 5 2 3 3 3 2 2 2
4 11 4 7 4 4 5 3 2 2 2 3 0 2 1 2 2 3 1 6 3 2 3 2 3 3 5 5 5 5 6 7 5 3 3 3 3 3 3 5 5 4 4 4 3 3 3 2 3 3 3 3 3 2
7 7 6 9 7 7 3 5 5 4 2 4 3 2 2 3 1 1 5 2 2 1 0 2 4 3 4 4 4 3 5 8 3 4 5 3 3 4 3 5 6 5 4 5 5 5 5 6 4 4 3 3 3 3
11 10 8 6 6 1 5 6 4 4 4 3 2 2 3 2 2 4 3 2 1 3 4 6 4 3 3 2 1 3 5 6 3 4 5 5 4 4 4 4 5 5 4 5 5 5 5 6 6 5 4 3 4 3
8 10 7 7 4 5 6 5 6 5 2 4 3 3 3 3 2 3 2 2 3 3 4 5 5 5 4 4 4 3 4 4 5 4 5 5 4 3 4 2 3 6 6 6 7 7 7 6 6 6 5 6 7 6
9 5 5 3 3 3 2 1 3 2 2 4 4 4 3 2 4 2 3 3 3 2 4 4 3 4 3 3 3 4 5 5 5 2 4 5 6 5 4 5 4 3 6 5 5 6 7 7 6 7 5 6 6 5
6 5 3 1 2 3 2 2 2 3 4 4 4 5 3 2 0 1 1 1 2 3 3 4 3 3 3 4 4 4 4 3 3 2 2 3 4 5 4 5 6 4 6 6 6 5 6 6 6 5 5 4 5 6
4 5 4 4 3 4 3 3 4 4 3 3 3 3 2 1 1 1 1 2 0 3 4 3 2 3 3 4 5 6 4 5 3 2 2 1 1 4 6 4 5 11 6 6 6 6 6 6 4 4 3 4 4 5
3 2 2 2 3 4 4 3 2 1 2 2 3 2 2 1 0 1 1 3 4 1 0 1 2 3 2 2 1 3 5 7 6 7 7 4 4 4 7 6 6 6 5 6 10 9 10 4 1 2 3 3 4 5
3 2 1 3 4 4 2 1 2 2 1 1 1 2 2 1 0 0 2 2 3 3 2 2 1 2 2 2 3 5 6 7 6 5 3 3 4 7 7 7 7 6 6 6 6 7 8 5 5 4 5 5 4 5
3 3 1 4 4 2 2 3 3 3 2 1 2 2 1 1 2 3 1 1 1 0 1 2 3 5 6 6 5 5 3 3 7 6 5 5 6 6 5 6 6 5 6 6 6 5 5 5 5 6 7 8 9 8
3 3 3 3 1 3 4 3 1 2 4 3 3 4 5 4 3 2 0 1 1 2 2 2 2 2 3 3 3 3 5 5 5 6 8 6 6 4 5 5 5 5 5 5 5 6 7 7 6 8 8 10 10 10
3 2 2 3 4 5 4 4 6 5 4 3 3 1 2 3 2 4 2 1 3 2 1 1 2 3 3 3 2 3 5 5 8 10 10 10 9 8 4 4 4 5 5 4 6 6 8 10 9 10 9 9 9 10
Wind_Direction
267 261 277 279 289 228 246 247 264 275 253 209 204 205 222 235 201 194 133 176 170 128 207 174 154 150 131 143 145 145 110 235 135 193 185 207 172 214 131 159 174 167 155 192 146 194 279 141 83 175 206 75 178 224
260 259 259 277 272 247 236 258 258 312 254 223 200 202 203 193 202 198 181 166 91 116 156 70 64 330 88 157 126 181 138 153 166 154 206 125 159 120 177 232 155 230 192 180 193 216 275 197 207 210 105 283 213 233
263 261 250 259 265 255 240 252 257 310 239 224 213 204 181 163 163 197 145 139 84 123 45 103 193 203 68 124 141 129 234 171 187 173 153 168 179 135 170 232 171 234 165 201 54 255 229 229 261 257 223 215 246 230
259 261 249 249 259 255 232 224 207 280 133 103 77 239 176 165 154 130 142 162 123 90 124 200 294 119 12 130 70 62 126 91 97 91 124 155 179 161 215 193 174 182 136 173 265 286 281 261 229 248 242 223 227 234
258 257 248 238 246 245 227 197 184 302 216 71 77 28 189 163 155 144 136 193 141 140 154 146 104 57 106 151 119 112 125 112 138 131 140 202 142 130 146 53 224 184 180 180 215 218 191 230 190 198 219 224 230 214
250 247 237 222 231 229 209 199 182 343 265 189 93 74 30 214 158 117 83 238 173 143 118 172 51 71 130 136 130 140 130 97 117 147 179 213 95 147 204 233 208 185 203 202 225 208 218 244 249 214 213 232 232 206
244 234 230 222 223 211 202 188 189 157 300 173 179 63 20 334 132 144 177 283 163 132 111 106 160 164 103 94 84 84 32 114 142 159 195 154 199 186 238 251 166 201 222 230 222 48 284 221 249 205 211 242 172 220
233 224 221 213 210 209 202 188 185 168 199 241 148 125 6 352 49 39 359 68 40 128 145 143 114 142 200 140 118 141 123 146 204 148 124 159 112 210 251 247 178 189 225 236 230 203 239 265 287 234 207 154 220 240
220 213 210 213 207 203 202 204 193 188 185 184 101 79 39 39 95 227 174 89 52 11 168 146 161 171 160 114 107 120 151 162 116 202 191 148 170 224 219 171 174 189 203 225 216 190 239 229 255 258 206 213 225 246
213 212 208 205 203 200 201 205 210 195 172 152 74 72 200 219 233 124 31 121 187 212 213 177 137 147 154 140 140 124 173 183 182 201 124 211 251 246 205 185 195 219 225 151 110 263 213 250 237 243 227 240 229 238
202 207 208 205 202 202 200 200 205 196 168 94 132 179 227 319 72 77 168 191 182 198 192 135 234 134 209 147 140 201 171 163 192 188 177 212 255 247 204 226 221 226 223 196 214 241 231 241 249 226 235 225 230 231
207 208 206 202 200 203 198 200 194 176 120 128 102 98 136 184 185 189 195 184 196 197 157 162 197 105 156 132 127 157 179 182 205 146 177 239 249 132 164 211 225 219 179 224 217 232 240 236 250 234 254 238 226 232
224 225 218 212 203 197 197 202 196 142 117 82 93 150 185 208 204 177 206 215 168 143 159 161 157 116 125 170 119 166 174 197 127 159 210 238 327 229 196 99 162 206 221 211 141 104 132 221 283 201 252 254 256 252
233 223 222 220 211 203 197 197 196 157 130 151 200 192 204 186 228 163 329 320 345 28 161 158 126 173 148 159 140 165 143 144 189 172 230 225 201 230 191 194 151 224 195 165 186 181 200 188 257 273 249 241 253 263
232 222 213 214 214 202 196 193 193 153 149 200 161 231 211 171 86 171 125 151 296 264 190 167 85 139 167 164 175 108 171 195 201 217 224 211 201 189 211 191 195 165 149 160 157 160 230 211 208 279 271 244 226 263
233 219 208 205 206 199 188 191 163 135 174 179 223 201 227 81 141 125 196 162 119 3 244 227 162 188 214 174 147 200 147 204 216 213 236 43 54 45 28 52 84 104 134 169 146 172 179 195 197 249 307 288 276 253
193 172 191 195 191 186 181 90 167 184 195 173 212 183 159 298 199 178 160 175 258 75 293 246 215 207 110 176 202 172 191 202 192 111 43 25 32 27 21 60 49 56 85 52 26 226 172 263 129 95 359 273 290 280
53 134 158 166 150 99 92 79 193 82 163 207 160 200 162 173 196 160 209 164 137 143 125 324 314 256 188 172 253 188 55 61 34 34 18 22 34 17 351 49 36 6 34 52 243 247 90 324 132 98 346 325 318 308
96 107 118 122 104 94 110 106 325 150 159 250 281 2 94 211 211 109 116 74 62 89 105 330 278 327 352 11 344 351 0 7 344 330 347 354 46 13 344 1 344 40 42 342 5 45 115 136 75 44 358 357 330 357
104 102 96 116 147 125 96 59 85 83 106 227 51 295 185 188 148 66 47 23 37 47 78 100 205 39 320 311 336 319 315 326 299 314 68 33 10 27 17 348 320 315 352 342 61 32 26 36 23 13 25 18 23 325
46 359 23 57 55 70 95 111 69 137 289 107 251 163 242 150 69 68 62 343 57 20 140 167 141 154 245 243 313 319 303 321 310 309 307 312 356 9 351 332 340 24 45 24 30 23 46 44 301 336 1 349 338 331
359 0 50 2 75 37 78 7 122 280 112 214 1 161 30 64 44 39 80 62 64 34 10 335 338 359 8 6 328 289 292 306 306 303 338 348 16 352 357 358 4 21 40 23 357 350 357 345 330 342 14 332 334 349
25 27 43 11 53 42 310 355 39 348 94 276 357 107 87 71 103 15 68 70 98 99 263 253 253 206 239 271 274 356 355 334 316 3 357 359 42 25 19 25 27 24 6 3 347 346 356 343 341 350 344 349 6 2
38 49 42 53 34 27 337 10 350 3 339 5 300 128 40 63 149 58 73 45 359 352 350 332 354 4 173 214 1 32 3 321 350 27 13 6 36 28 33 34 32 24 2 323 356 349 351 357 350 4 5 2 17 25
70 2 24 18 22 27 33 10 358 19 48 343 312 103 30 314 80 48 32 15 4 0 347 352 11 12 2 350 2 332 40 357 343 14 12 11 360 33 33 61 68 42 4 5 7 359 353 349 352 1 16 24 17 8
73 352 42 356 2 49 345 26 37 2 314 347 42 343 304 3 60 2 338 334 291 317 0 13 349 335 344 344 337 355 346 335 307 58 32 25 29 27 17 24 3 355 2 354 343 348 345 341 341 353 357 9 17 15
81 32 24 212 336 301 53 43 14 16 29 7 360 337 320 99 21 254 238 164 297 331 317 314 307 319 329 330 320 313 313 314 317 340 0 37 52 39 23 9 351 313 327 331 330 327 316 320 329 341 353 4 19 10
67 22 40 355 40 8 33 41 24 13 343 358 248 20 76 101 196 313 303 325 326 294 285 275 314 322 322 334 343 347 335 323 275 222 254 185 84 58 14 350 334 339 333 326 320 303 306 302 313 330 10 27 22 16
61 335 265 75 98 65 47 22 11 19 333 294 329 43 59 46 326 277 280 305 302 278 33 17 6 346 321 226 214 14 18 16 33 60 55 32 2 351 349 337 330 333 330 324 324 335 321 327 99 35 31 41 54 48
33 339 39 64 51 54 44 313 313 321 275 243 249 194 179 243 337 340 297 313 330 333 333 24 17 50 47 29 14 37 40 35 29 31 24 359 321 308 314 320 334 334 329 325 326 330 350 11 16 30 38 44 52 58
312 289 82 44 75 50 0 310 264 249 266 329 342 59 44 292 210 178 164 156 178 142 37 357 4 358 5 8 14 9 2 22 360 348 333 295 289 293 305 329 328 327 324 329 342 355 7 30 38 50 53 55 51 55
21 67 109 103 243 302 17 29 330 34 338 33 339 351 344 360 327 303 313 63 100 97 73 51 45 57 24 5 7 10 342 314 324 319 322 321 326 341 344 336 339 338 343 2 20 27 38 51 53 57 58 59 59 58
40 37 50 72 21 1 335 38 17 354 13 13 314 231 211 169 230 265 294 133 158 176 223 289 316 332 323 315 300 315 333 321 321 331 333 343 357 26 357 341 343 350 11 21 31 40 51 62 64 65 66 68 68 67